Theta_e
313 313 313 313 313 312 312 312 312 313 313 313 313 313 313 313 312 308 301 306 311 316 320 310 309 306 307 304 306 307 301 299 301 301 303 307 305 310 311 310 311 314 316 319 327
313 313 313 312 312 312 312 312 312 313 313 313 313 313 313 313 307 304 311 314 318 322 308 306 303 304 304 302 304 303 299 299 303 305 305 305 304 306 306 307 308 311 314 320 331
313 313 313 313 313 312 312 312 313 313 313 313 313 313 312 312 303 310 323 319 322 323 309 306 304 303 301 303 301 300 298 300 302 306 306 303 304 306 305 305 307 308 311 314 323
314 314 313 313 312 312 312 312 312 313 312 312 312 311 312 309 299 311 330 323 324 321 306 304 303 300 299 299 302 299 301 302 303 305 304 303 305 303 305 306 310 311 312 313 314
314 313 313 313 312 312 312 312 312 313 312 312 312 311 309 301 303 323 329 324 321 311 306 302 301 300 298 299 300 299 300 302 304 304 303 304 301 302 303 308 310 310 310 311 313
315 313 312 312 312 312 312 313 313 313 312 312 312 312 307 298 311 326 321 316 310 307 304 305 303 302 299 298 299 300 299 300 301 302 302 301 302 302 304 309 308 309 310 311 313
315 314 313 312 312 312 312 313 313 313 313 312 312 311 303 299 310 323 316 309 308 307 305 310 309 303 302 298 300 300 297 299 301 301 301 302 299 300 306 306 307 308 310 311 314
315 314 314 312 312 313 313 313 312 313 313 312 313 311 298 305 314 312 311 308 310 310 311 312 312 303 302 302 299 297 296 294 298 299 301 301 295 302 305 304 305 306 307 308 311
315 314 314 313 312 312 312 312 313 313 314 314 310 306 301 316 311 314 310 308 310 310 311 310 305 300 299 297 295 294 292 293 295 299 299 299 295 301 304 303 304 306 307 307 309
314 314 313 313 313 311 311 313 316 316 315 314 311 303 306 306 312 313 311 311 309 306 302 302 301 298 296 295 289 290 290 292 292 297 297 297 297 301 304 302 304 304 306 307 308
314 313 313 313 313 311 309 310 305 303 308 305 304 301 304 311 314 308 312 310 307 302 297 298 295 292 295 296 294 293 292 292 295 299 296 297 298 300 303 303 304 305 306 307 309
313 313 313 313 313 311 308 304 307 308 301 306 306 306 308 310 303 308 310 303 301 296 297 295 292 297 296 295 294 293 292 292 296 298 296 297 297 300 302 302 304 304 306 307 309
312 312 312 312 311 308 305 307 311 310 301 303 305 305 306 308 303 304 305 302 298 295 295 293 295 297 295 295 293 293 292 293 293 296 296 296 294 297 300 302 303 305 306 307 307
311 311 311 311 304 304 304 309 311 310 297 299 301 304 307 307 302 310 307 303 298 295 295 295 298 295 294 293 295 291 296 296 294 292 289 295 287 295 298 299 301 304 305 307 307
310 311 311 310 306 301 308 310 310 310 287 302 301 310 308 303 302 304 307 303 297 296 296 294 294 293 293 295 296 294 296 295 294 293 291 292 289 293 296 296 299 303 305 306 308
310 310 310 306 305 306 308 309 311 296 286 299 301 299 300 302 301 302 303 305 303 298 296 297 298 297 297 297 297 298 295 293 292 291 286 292 290 291 294 297 300 303 304 305 306
309 309 307 308 303 306 306 310 295 289 300 295 296 299 297 297 299 299 297 297 294 291 291 295 296 299 298 295 298 296 293 286 285 285 285 294 290 293 298 300 302 301 303 306 308
307 306 306 307 307 306 309 302 287 291 293 299 298 299 295 297 296 297 296 294 297 295 292 290 289 295 298 296 295 295 294 287 281 283 286 291 287 292 299 302 302 303 305 306 307
305 304 304 308 308 308 305 292 290 294 296 295 297 294 293 296 296 296 295 294 296 295 290 288 289 297 299 300 298 295 290 296 289 289 286 289 293 298 300 300 301 303 305 305 307
301 299 304 308 309 306 298 290 294 299 298 297 291 295 292 293 294 294 293 298 297 299 299 295 288 296 297 298 297 295 298 290 291 282 281 288 288 290 296 298 300 302 303 304 307
301 300 305 308 310 304 295 293 297 301 299 296 294 292 292 291 292 292 292 294 297 296 299 296 292 292 296 294 293 294 292 293 293 291 284 283 288 298 297 299 300 301 302 303 305
300 295 306 308 301 296 295 294 297 298 300 297 296 295 293 293 291 290 291 294 298 297 293 297 294 288 291 298 297 296 294 294 289 286 289 288 288 300 299 300 301 301 302 304 307
297 296 306 306 294 293 296 295 297 296 296 295 296 296 296 292 289 292 293 298 298 296 293 296 291 286 288 293 295 293 295 294 293 290 287 284 288 299 300 300 301 301 302 303 306
298 293 297 299 298 295 293 294 294 299 296 297 296 296 293 292 293 289 291 295 297 296 299 297 292 289 284 288 292 289 291 293 291 286 287 287 290 294 296 297 299 302 303 304 306
296 291 293 289 293 292 294 293 290 290 296 297 294 294 290 288 289 289 291 292 294 296 296 294 287 289 290 291 291 289 289 289 288 289 286 289 289 293 296 297 300 302 302 302 303
296 294 296 294 293 292 292 291 290 292 293 291 291 292 292 289 289 288 290 290 290 294 293 295 288 289 286 289 289 287 289 289 289 290 290 290 289 297 298 300 300 300 299 298 301
299 299 296 293 291 290 291 291 291 293 293 295 294 291 290 292 295 294 294 295 294 292 291 291 289 286 282 287 287 284 288 289 290 291 291 288 293 298 298 299 299 299 299 298 300
Wind_Speed
16 15 14 14 13 13 12 12 12 12 12 12 12 12 11 11 12 3 8 8 7 10 5 4 3 4 3 3 3 2 5 9 9 6 3 1 3 2 5 5 8 8 5 5 8
16 15 14 14 13 13 12 11 11 12 12 11 11 11 10 10 8 10 11 8 9 12 6 7 8 7 4 4 4 4 5 8 3 4 3 1 3 6 5 7 6 7 10 5 6
15 15 14 14 14 12 12 12 11 11 11 11 10 10 9 8 4 4 6 12 11 10 3 3 8 3 4 3 4 4 7 5 4 8 6 3 5 3 5 9 4 7 13 11 3
16 16 15 13 13 13 13 13 11 10 10 10 8 8 8 3 3 1 3 14 12 6 5 6 5 5 5 7 4 5 6 6 4 6 6 11 4 4 8 12 12 14 13 13 13
18 18 16 15 13 13 13 13 12 10 9 9 7 5 3 3 7 3 13 13 10 8 7 6 8 5 7 5 7 6 4 5 8 9 9 9 10 9 7 14 13 11 10 13 14
20 19 18 16 14 13 13 13 12 11 9 7 5 3 2 3 2 7 10 10 8 6 7 7 8 4 5 4 6 4 4 6 6 9 6 7 12 4 5 10 10 9 8 8 12
18 18 19 17 15 14 13 12 11 11 8 5 4 2 3 5 3 7 8 4 7 5 6 4 3 3 7 5 2 3 4 4 9 5 6 6 11 7 8 5 10 8 9 4 9
19 19 19 18 16 14 13 13 12 10 7 4 4 2 7 2 4 5 4 3 4 4 1 2 4 2 1 5 3 3 2 5 2 3 3 7 13 9 3 2 6 8 8 8 4
20 20 19 19 17 15 14 15 12 6 5 5 3 2 6 2 5 8 9 3 5 4 3 3 3 3 4 5 3 1 6 7 6 4 2 6 1 4 3 2 5 6 8 9 9
20 20 20 18 17 14 13 10 10 10 6 4 4 5 6 3 3 5 7 4 2 5 5 2 3 3 3 5 5 4 4 4 6 2 2 8 10 11 10 5 6 6 7 7 9
22 20 21 19 15 9 6 2 4 3 5 8 3 4 4 4 2 5 5 8 2 3 3 2 6 8 9 5 2 1 4 8 10 10 6 11 10 12 10 8 10 8 5 7 8
23 22 21 21 17 9 4 4 1 1 8 14 14 9 7 4 2 3 9 6 4 6 4 4 11 10 3 5 5 5 6 9 10 11 7 10 12 10 10 11 10 9 8 9 7
23 22 22 21 13 5 3 3 4 2 4 3 6 5 6 9 5 6 12 6 4 7 8 9 3 5 10 6 6 6 7 5 7 4 4 7 11 10 8 8 10 12 11 9 10
23 23 21 24 3 3 4 1 4 4 4 3 4 3 6 5 5 7 10 8 4 9 7 8 6 10 8 9 11 11 14 12 9 6 11 2 11 10 9 11 10 11 10 11 13
25 24 21 12 7 4 3 5 3 3 5 2 4 7 5 7 2 4 4 6 9 7 6 3 6 8 9 15 10 8 4 5 7 9 5 10 9 11 6 11 14 15 14 11 10
27 27 23 0 3 7 5 3 2 2 4 2 4 4 6 6 1 4 4 2 1 8 7 11 1 4 6 3 9 2 7 3 2 5 12 15 13 8 11 12 13 10 8 9 12
30 32 17 3 1 4 5 2 1 4 5 3 3 0 4 5 6 4 6 10 9 6 9 9 15 10 9 12 11 7 9 7 7 9 13 8 14 13 9 13 16 12 11 11 11
33 27 1 4 3 6 2 2 3 2 2 4 4 7 1 3 1 2 5 6 4 8 11 8 9 7 7 13 11 8 8 9 10 8 9 1 9 6 7 10 6 4 9 9 10
26 5 2 5 2 2 2 2 1 1 4 6 5 2 1 5 6 7 6 3 3 4 5 4 5 2 6 11 8 10 10 7 13 5 8 9 11 9 9 6 3 6 9 11 11
7 5 3 6 1 1 2 1 1 2 5 3 2 4 1 2 2 9 9 11 10 10 5 3 9 5 4 2 4 7 5 5 5 8 16 8 7 7 7 6 3 6 10 16 13
2 2 5 11 2 3 2 2 3 7 6 4 1 2 4 4 2 2 5 5 3 7 9 5 4 9 6 6 12 6 6 4 5 4 8 12 7 3 1 1 6 6 12 14 16
4 2 6 7 2 2 2 5 8 9 6 5 4 4 0 2 4 3 7 4 4 7 9 4 5 8 13 9 4 5 8 4 7 5 5 7 9 1 2 3 7 15 15 16 10
4 3 4 4 3 3 3 4 7 12 8 6 4 3 3 3 3 10 10 10 9 7 3 3 4 5 5 5 4 8 6 1 4 2 7 8 6 6 6 16 14 14 17 14 9
3 4 5 6 4 4 5 3 6 7 4 7 4 3 2 7 6 4 4 7 9 10 8 3 5 11 12 7 2 3 7 6 5 4 12 13 20 20 15 14 16 14 12 11 7
4 3 2 5 4 6 3 3 7 6 2 2 3 6 4 4 4 7 10 12 11 13 13 4 6 9 13 15 14 15 18 17 19 19 19 20 22 19 18 12 10 9 11 13 8
3 3 2 1 4 4 2 4 7 7 6 3 4 2 4 5 6 5 11 10 8 6 5 11 4 6 12 12 18 20 19 19 19 19 19 20 24 15 5 7 8 9 10 12 13
2 1 2 2 4 4 2 4 6 8 6 8 8 5 8 11 12 12 14 18 17 12 8 7 7 6 12 7 6 11 13 14 10 10 9 13 9 5 9 9 11 13 15 16 16
Wind_Direction
343 338 333 325 318 312 312 310 307 305 303 302 303 302 308 311 312 288 242 228 175 236 198 146 149 147 128 129 115 154 199 212 213 190 177 92 14 123 317 309 330 336 313 22 120
342 340 336 328 321 315 311 307 304 303 302 300 301 307 311 318 301 254 245 205 228 181 174 161 150 147 133 138 142 193 219 212 219 205 225 229 316 341 308 304 296 308 353 37 143
342 338 337 332 322 314 309 306 306 302 302 301 303 304 312 316 276 231 170 194 191 177 161 117 130 139 148 163 161 146 224 194 220 237 265 269 277 257 284 289 249 300 308 310 246
343 340 335 331 323 314 309 304 304 305 305 303 307 308 309 273 140 5 164 172 176 172 139 122 121 140 148 170 159 199 218 211 221 225 254 269 289 272 250 263 269 269 281 286 286
343 343 337 330 323 314 307 303 301 300 303 304 302 307 298 241 259 12 132 151 152 163 156 141 154 151 176 166 153 208 219 212 237 249 252 267 257 255 250 261 278 270 259 259 268
342 343 340 331 323 315 308 302 297 296 294 296 292 289 269 262 57 139 140 144 157 156 158 162 172 180 120 144 197 186 223 258 259 245 237 243 264 187 246 263 274 287 280 264 257
340 339 340 336 325 317 310 302 296 292 284 278 258 253 266 249 332 168 162 178 170 164 156 193 170 181 146 144 148 144 250 263 238 240 242 189 257 241 250 291 282 293 303 294 260
338 337 338 339 330 321 313 304 294 281 263 241 210 237 255 183 97 162 201 156 196 236 291 154 167 95 332 119 79 198 217 245 161 198 246 207 263 274 275 335 301 321 321 316 282
337 337 336 338 334 324 318 309 288 243 197 180 179 244 265 304 210 197 183 199 168 197 230 95 141 89 139 161 185 118 244 235 283 202 237 222 313 311 297 271 291 308 314 312 310
338 337 336 336 333 327 324 322 113 119 121 166 256 268 244 184 180 164 194 174 147 130 123 149 85 162 130 198 236 174 212 223 254 108 210 282 286 285 280 276 288 287 293 301 306
337 337 334 335 326 331 335 167 203 166 211 215 180 272 286 302 269 196 156 146 137 75 169 54 217 218 222 210 162 208 261 276 277 277 302 282 282 279 282 288 286 288 273 286 281
334 335 334 332 329 308 178 221 181 73 289 230 247 255 267 315 304 172 155 166 168 196 140 194 241 232 201 196 219 232 267 270 284 277 206 275 271 269 272 278 275 284 267 262 257
331 330 332 334 339 126 233 244 110 130 274 275 194 210 211 178 221 211 178 154 181 177 195 224 192 172 193 201 223 228 223 231 259 318 233 278 270 259 246 248 258 264 281 281 256
326 326 335 335 209 338 244 143 324 204 295 245 210 219 153 173 220 198 180 173 187 223 186 247 230 221 208 229 214 245 213 242 258 262 277 235 286 263 256 249 251 264 258 253 283
322 325 333 322 304 237 58 329 127 208 299 119 122 147 151 202 113 157 176 178 198 175 192 202 177 185 208 233 188 262 185 251 262 263 266 242 258 275 221 245 252 256 257 264 265
321 322 328 193 217 254 326 303 200 228 250 68 117 157 159 214 242 122 163 134 232 213 221 258 233 253 250 173 198 286 275 267 189 251 250 256 249 257 255 257 275 263 254 277 295
321 317 314 239 251 343 309 165 197 234 344 30 18 171 222 198 218 214 164 187 213 193 226 240 244 244 227 261 248 238 271 273 248 225 259 280 261 263 259 255 267 295 309 311 318
327 322 102 225 276 352 235 115 211 7 0 357 337 315 268 28 94 178 177 215 215 240 272 258 264 207 185 215 257 226 242 255 268 259 274 194 254 260 252 278 274 359 342 334 334
329 339 297 330 247 193 131 163 256 20 333 327 317 276 78 50 48 11 3 328 48 172 229 210 244 275 262 272 247 256 231 274 262 256 259 249 255 260 245 252 357 355 359 354 343
330 317 346 340 180 94 87 248 298 334 330 298 267 9 155 24 349 352 345 356 334 357 7 287 278 252 286 238 175 229 148 203 209 269 269 245 265 259 261 266 328 336 352 345 331
305 353 351 342 272 51 69 18 334 4 356 327 317 107 93 49 349 249 207 76 30 353 342 329 252 245 318 252 270 241 225 228 288 236 267 280 260 115 257 270 316 343 328 330 329
336 48 350 334 39 33 51 334 342 350 6 19 35 35 213 116 344 341 267 238 358 1 325 358 294 256 258 271 288 256 276 259 231 225 253 291 272 38 356 355 340 320 322 321 331
7 302 333 328 44 31 358 7 19 18 360 4 250 359 6 175 212 251 251 246 314 335 276 298 218 262 245 236 251 258 253 190 26 46 214 258 261 162 310 325 326 323 316 315 312
5 354 356 33 22 12 2 343 319 354 355 1 339 327 223 236 198 273 270 312 293 261 260 115 259 246 262 298 329 290 274 248 219 239 275 251 279 287 299 312 317 329 336 331 328
15 65 29 353 13 342 321 322 298 301 259 252 264 229 195 240 238 233 257 268 277 280 265 216 249 256 266 265 267 265 258 258 249 253 256 277 283 292 299 306 308 311 324 333 316
20 354 36 350 304 350 4 319 304 310 354 311 244 301 294 237 228 266 291 281 267 254 221 160 259 253 267 267 266 266 262 258 256 257 258 269 276 300 296 282 292 307 320 315 302
72 263 273 318 353 324 339 334 326 349 302 258 298 297 267 275 275 278 275 265 255 258 249 206 239 254 275 282 295 262 263 241 241 245 256 262 293 313 296 300 315 312 304 295 292